COSMOS 2251 DEB, 35446

Orbit data source: Space-Track

COSMOS 2251 DEB, 35446 is space debris in LEO originally from a launch on Wed, 16 Jun 1993 UTC launched from the Plesetsk Missile And Space Complex (PKMTR). The debris from Iridium 33, an American commercial communications satellite, has been tracked extensively since its accidental collision with the defunct Russian satellite Cosmos 2251 in 2009. This event, occurring at high speed in low Earth orbit (LEO), generated thousands of pieces of space debris, significantly increasing the risk of further collisions. The Iridium 33 debris cloud has impacted space traffic management and orbital debris mitigation strategies, making it a subject of ongoing study in space situational awareness.

Loading next visibility...
Identifier
35446, 1993-036AKQ
Orbit
LEO
Country
Flag of CISCIS
Related business
Manufacturer
Unknown
Mission
Spacecraft
Bus & Motor
Unknown
Mass
Unknown
Launch date (UTC)
1993-06-16 (33 years ago)
Launch vehicle
Unknown
Launch site
Plesetsk Missile And Space Complex (PKMTR)
Object type
Payload
Rocket body
Debris
Shape & HBR
Unknown shape, 0.1 m
Radar Cross Section
Small (<0.1 m²)

Expand to show TLE details & history
Last TLE update: 11 hours ago

TLE from 11 hours ago
0 COSMOS 2251 DEB
1 35446U 93036AKQ 26265.34515665  .00000158  00000-0  42288-4 0  9991
2 35446  74.0463 141.8343 0075887 189.0057 170.9751 14.54857191921329
Epoch: 2026-09-22T08:17Z
TLE epoch observation values (Epoch: 2026-09-22T08:17:01.534Z)
Latitude
-0.00004°
Longitude
16.36593°
Altitude
765.605 km
Speed
7.444 km/s
True Right ascension
09h 27m 20s
True Declination
0° 00' 00"
Sunlit
Object was in daylight at epoch
Visualization orbit readout
Latitude
Unknown
Longitude
Unknown
Altitude
Unknown
Speed
Unknown
Apparent Right ascension
Unknown
Apparent Declination
Unknown
Sunlit
N/A
Visualization observer readout
Local Sidereal Time
12:23:12
Azimuth
Unknown
Elevation
Unknown
Doppler factor
Unknown
Orbital elements
Apogee altitude
761.201 km
Perigee altitude
653.66 km
Semi-major axis
7,085.568 km
Eccentricity
0.00759
Inclination
74.0463°
RAAN
141.8343°
Arg. of periapsis
189.0057°
True anomaly
171.11024°
Mean anomaly
170.9751°
Eccentric anomaly
171.0428°
Mean motion
3.63899 °/min
Orbital period
98.93 mins
BSTAR
0.000042288
Loading maneuver chart data...
Computing Atmospheric mass density...

Documentation

Showing up to 5 results
|